Tracking 27428 objects as of 31-May-2023
HD Live streaming from Space Station
objects crossing your sky now

PEARL WHITE 2

Track PEARL WHITE 2 now!
10-day predictions


NORAD ID: 44498
Int'l Code: 2019-054D
Perigee: 515.6 km
Apogee: 524.1 km
Inclination: 45.0 °
Period: 94.9 minutes
Semi major axis: 6890 km
RCS: Unknown
Launch date: August 19, 2019
Source: United States (US)
Launch site: Rocket Lab Launch Complex (RLLC)
Your satellite tracking list
Your tracking list is empty




NASA's NSSDC Master Catalog

Two Line Element Set (TLE):
1 44498U 19054D   23151.76034473  .00010176  00000-0  50794-3 0  9997
2 44498  45.0090 314.2046 0006122 138.3334 221.8013 15.17732006208824
Source of the keplerian elements: AFSPC